Staunton, VA

12:58 PM EDT on September 15, 2019 (GMT -0400)
Shenandoah Valley Regional

Weather History for KSHD - August, 2019

Change the Weather History Date:

Thursday, August 22, 2019

  Actual Average Record
Temperature  
Mean Temperature 76 °F -  
Max Temperature 90 °F 84 °F 98 °F (2002)
Min Temperature 63 °F 62 °F 35 °F (2002)
Cooling Degree Days 12    
Growing Degree Days 26 (Base 50)    
Moisture  
Dew Point 67 °F    
Average Humidity 77    
Maximum Humidity 97    
Minimum Humidity 49    
Precipitation  
Precipitation 0.00 in - - ()
Sea Level Pressure  
Sea Level Pressure 30.01 in    
Wind  
Wind Speed 2 mph ()    
Max Wind Speed 15 mph    
Max Gust Speed 24 mph    
Visibility 10.0 miles    
Events Rain    
Averages and records for this station are not official NWS values.
T = Trace of Precipitation, MM = Missing Value Source: Averaged Metar Reports

Daily Weather History Graph

Daily Weather History Graph

Search for Another Location

Airport or City:

Astronomy

Aug. 22, 2019 Rise Set
Actual Time 6:36 AM EDT 8:00 PM EDT
Civil Twilight 6:08 AM EDT 8:27 PM EDT
Nautical Twilight 5:35 AM EDT 9:00 PM EDT
Astronomical Twilight 5:00 AM EDT 9:35 PM EDT
Moon 11:55 PM EDT (8/22) 1:04 PM EDT (8/22)
Length of Visible Light 14h 19m
Length of Day
13h 23m
Waning Gibbous, 60% of the Moon is Illuminated
Aug 22
Waning Gibbous
Aug 23
Last Quarter
Aug 30
New
Sep 5
First Quarter
Sep 14
Full

Hourly Weather History & Observations

Time (EDT) Temp. Heat Index Dew Point Humidity Pressure Visibility Wind Dir Wind Speed Gust Speed Precip Events Conditions
12:30 AM 69.8 °F - 64.4 °F 83% 30.02 in 10.0 mi WSW 3.5 mph - N/A   Clear
12:50 AM 68.9 °F - 64.4 °F 86% 30.03 in 10.0 mi Calm Calm - N/A   Clear
1:10 AM 68.5 °F - 64.4 °F 87% 30.03 in 10.0 mi Calm Calm - N/A   Clear
1:30 AM 68.2 °F - 64.2 °F 87% 30.03 in 10.0 mi Calm Calm - N/A   Clear
1:50 AM 68.0 °F - 64.2 °F 88% 30.02 in 10.0 mi Calm Calm - N/A   Clear
2:10 AM 68.0 °F - 64.4 °F 88% 30.01 in 10.0 mi Calm Calm - N/A   Clear
2:30 AM 66.4 °F - 63.9 °F 92% 29.99 in 10.0 mi Calm Calm - N/A   Clear
2:50 AM 65.3 °F - 63.5 °F 94% 29.99 in 10.0 mi Calm Calm - N/A   Clear
3:10 AM 64.8 °F - 63.5 °F 96% 29.99 in 10.0 mi Calm Calm - N/A   Clear
3:30 AM 64.9 °F - 63.7 °F 96% 29.99 in 10.0 mi Calm Calm - N/A   Clear
3:50 AM 63.7 °F - 61.9 °F 94% 29.99 in 10.0 mi Calm Calm - N/A   Clear
4:30 AM 64.8 °F - 63.0 °F 94% 30.00 in 10.0 mi Calm Calm - N/A   Clear
4:50 AM 64.6 °F - 63.3 °F 96% 30.00 in 10.0 mi Calm Calm - N/A   Clear
5:10 AM 63.7 °F - 62.6 °F 96% 30.00 in 10.0 mi Calm Calm - N/A   Clear
5:50 AM 63.0 °F - 61.9 °F 96% 30.02 in 10.0 mi Calm Calm - N/A   Clear
6:10 AM 63.1 °F - 62.4 °F 97% 30.02 in 10.0 mi Calm Calm - N/A   Clear
6:30 AM 63.5 °F - 62.8 °F 97% 30.03 in 10.0 mi Calm Calm - N/A   Clear
6:50 AM 63.5 °F - 62.6 °F 97% 30.03 in 10.0 mi Calm Calm - N/A   Clear
7:10 AM 64.0 °F - 62.8 °F 96% 30.04 in 10.0 mi Calm Calm - N/A   Clear
7:30 AM 65.8 °F - 63.9 °F 93% 30.04 in 10.0 mi Calm Calm - N/A   Clear
7:50 AM 67.8 °F - 65.1 °F 91% 30.03 in 10.0 mi Calm Calm - N/A   Clear
8:10 AM 70.0 °F - 65.5 °F 86% 30.04 in 10.0 mi Calm Calm - N/A   Clear
8:30 AM 72.3 °F - 66.4 °F 82% 30.04 in 10.0 mi Calm Calm - N/A   Clear
8:50 AM 73.9 °F - 66.6 °F 78% 30.04 in 10.0 mi Calm Calm - N/A   Clear
9:10 AM 75.7 °F - 67.8 °F 76% 30.03 in 10.0 mi Calm Calm - N/A   Clear
9:30 AM 77.9 °F - 68.2 °F 72% 30.04 in 10.0 mi Calm Calm - N/A   Clear
9:50 AM 79.9 °F - 69.4 °F 70% 30.04 in 10.0 mi Calm Calm - N/A   Clear
10:10 AM 81.3 °F 84.6 °F 69.6 °F 67% 30.04 in 10.0 mi ESE 4.6 mph - N/A   Clear
10:30 AM 82.4 °F 86.3 °F 70.0 °F 66% 30.05 in 10.0 mi South 3.5 mph - N/A   Clear
10:50 AM 83.3 °F 86.9 °F 69.3 °F 62% 30.05 in 10.0 mi Calm Calm - N/A   Clear
11:10 AM 84.2 °F 88.4 °F 70.0 °F 62% 30.04 in 10.0 mi South 3.5 mph - N/A   Clear
11:30 AM 85.3 °F 89.8 °F 70.0 °F 60% 30.04 in 10.0 mi SSE 3.5 mph - N/A   Clear
11:50 AM 86.2 °F 90.4 °F 69.3 °F 57% 30.04 in 10.0 mi Calm Calm - N/A   Clear
12:10 PM 86.5 °F 90.7 °F 69.3 °F 56% 30.03 in 10.0 mi SE 5.8 mph - N/A   Mostly Cloudy
12:30 PM 86.0 °F 90.4 °F 69.6 °F 58% 30.03 in 10.0 mi Calm Calm - N/A   Overcast
12:50 PM 87.1 °F 91.3 °F 68.9 °F 55% 30.02 in 10.0 mi Calm Calm - N/A   Mostly Cloudy
1:10 PM 88.2 °F 92.9 °F 69.6 °F 54% 30.01 in 10.0 mi West 3.5 mph - N/A   Overcast
1:50 PM 90.3 °F 94.7 °F 68.9 °F 49% 30.00 in 10.0 mi West 4.6 mph - N/A   Scattered Clouds
2:10 PM 90.5 °F 95.5 °F 69.8 °F 50% 29.98 in 10.0 mi North 3.5 mph - N/A   Scattered Clouds
2:30 PM 88.5 °F 92.7 °F 69.1 °F 52% 29.98 in 10.0 mi East 4.6 mph - N/A   Scattered Clouds
2:50 PM 86.4 °F 90.7 °F 69.4 °F 57% 29.98 in 10.0 mi Calm Calm - N/A   Mostly Cloudy
3:10 PM 86.5 °F 91.4 °F 70.3 °F 58% 29.97 in 10.0 mi Calm Calm - N/A Rain Light Rain
3:30 PM 85.6 °F 90.4 °F 70.3 °F 60% 29.97 in 10.0 mi SSW 15.0 mph 24.2 mph N/A   Scattered Clouds
4:10 PM 79.0 °F - 68.4 °F 70% 29.97 in 10.0 mi SSE 8.1 mph - N/A   Clear
4:50 PM 80.4 °F 82.7 °F 66.6 °F 63% 29.97 in 10.0 mi South 8.1 mph - N/A   Clear
5:10 PM 79.7 °F - 66.4 °F 64% 29.96 in 10.0 mi South 5.8 mph - N/A   Clear
5:30 PM 82.4 °F 85.0 °F 67.5 °F 60% 29.97 in 10.0 mi SSE 6.9 mph - N/A   Clear
5:50 PM 81.3 °F 83.6 °F 66.7 °F 61% 29.98 in 10.0 mi NNE 4.6 mph - N/A   Scattered Clouds
6:10 PM 78.8 °F - 66.7 °F 66% 29.97 in 10.0 mi ENE 3.5 mph - N/A   Mostly Cloudy
6:30 PM 79.0 °F - 67.3 °F 67% 29.97 in 10.0 mi SSE 4.6 mph - N/A   Overcast
6:50 PM 78.8 °F - 68.2 °F 70% 29.98 in 10.0 mi South 4.6 mph - N/A   Mostly Cloudy
7:10 PM 79.0 °F - 68.2 °F 69% 29.98 in 10.0 mi SSW 10.4 mph - N/A   Mostly Cloudy
7:30 PM 77.2 °F - 67.6 °F 72% 29.99 in 10.0 mi SW 9.2 mph - N/A   Overcast
7:50 PM 77.0 °F - 68.5 °F 75% 29.98 in 10.0 mi SSW 9.2 mph - N/A   Mostly Cloudy
8:10 PM 75.6 °F - 68.9 °F 80% 29.98 in 10.0 mi South 4.6 mph - N/A   Light Drizzle
8:30 PM 75.2 °F - 68.2 °F 79% 29.99 in 10.0 mi South 8.1 mph - N/A   Clear
8:50 PM 74.3 °F - 68.0 °F 81% 30.00 in 10.0 mi South 6.9 mph - N/A   Clear
9:10 PM 73.4 °F - 68.5 °F 85% 30.00 in 10.0 mi South 5.8 mph - N/A   Clear
9:30 PM 72.7 °F - 68.0 °F 85% 30.00 in 10.0 mi South 5.8 mph - N/A   Clear
9:50 PM 72.0 °F - 67.5 °F 86% 30.00 in 10.0 mi SSW 4.6 mph - N/A   Clear
10:10 PM 71.6 °F - 67.3 °F 86% 30.01 in 10.0 mi South 4.6 mph - N/A   Clear
10:30 PM 71.2 °F - 67.1 °F 87% 30.01 in 10.0 mi South 4.6 mph - N/A   Clear
10:50 PM 70.9 °F - 67.3 °F 88% 30.02 in 10.0 mi SE 3.5 mph - N/A   Clear
11:10 PM 70.7 °F - 67.3 °F 89% 30.03 in 10.0 mi Calm Calm - N/A   Clear
11:30 PM 70.9 °F - 67.3 °F 88% 30.03 in 10.0 mi SE 3.5 mph - N/A   Clear
11:50 PM 70.9 °F - 67.3 °F 88% 30.02 in 10.0 mi SSE 3.5 mph - N/A   Clear